Franklin, PA

4:57 PM EST on December 07, 2019 (GMT -0500)
Venango Regional

Weather History for KFKL - July, 2019

Change the Weather History Date:

Tuesday, July 30, 2019

  Actual Average Record
Temperature  
Mean Temperature 70 °F -  
Max Temperature 75 °F 80 °F 99 °F (1933)
Min Temperature 63 °F 57 °F 45 °F (1965)
Cooling Degree Days 4    
Growing Degree Days 20 (Base 50)    
Moisture  
Dew Point 66 °F    
Average Humidity 88    
Maximum Humidity 97    
Minimum Humidity 78    
Precipitation  
Precipitation 0.04 in - - ()
Sea Level Pressure  
Sea Level Pressure 30.02 in    
Wind  
Wind Speed 8 mph (SW)    
Max Wind Speed 12 mph    
Max Gust Speed 17 mph    
Visibility 10 miles    
Events Rain , Thunderstorm    
Averages and records for this station are not official NWS values.
T = Trace of Precipitation, MM = Missing Value Source: NWS Daily Summary

Daily Weather History Graph

Daily Weather History Graph

Search for Another Location

Airport or City:

Astronomy

Jul. 30, 2019 Rise Set
Actual Time 6:12 AM EDT 8:38 PM EDT
Civil Twilight 5:40 AM EDT 9:10 PM EDT
Nautical Twilight 5:01 AM EDT 9:48 PM EDT
Astronomical Twilight 4:18 AM EDT 10:32 PM EDT
Moon 4:18 AM EDT (7/30) 7:42 PM EDT (7/30)
Length of Visible Light 15h 29m
Length of Day
14h 26m
Waning Crescent, 3% of the Moon is Illuminated
Jul 30
Waning Crescent
Jul 31
New
Aug 7
First Quarter
Aug 15
Full
Aug 23
Last Quarter

Hourly Weather History & Observations

Time (EDT) Temp. Dew Point Humidity Pressure Visibility Wind Dir Wind Speed Gust Speed Precip Events Conditions
12:56 AM 72.0 °F 66.0 °F 81% 29.96 in 10.0 mi South 9.2 mph - N/A   Clear
1:56 AM 71.1 °F 66.0 °F 84% 29.95 in 10.0 mi SSW 9.2 mph - N/A   Clear
2:56 AM 71.1 °F 66.0 °F 84% 29.94 in 10.0 mi South 11.5 mph - N/A   Scattered Clouds
3:56 AM 70.0 °F 64.9 °F 84% 29.95 in 10.0 mi SW 6.9 mph - N/A   Clear
4:56 AM 69.1 °F 64.9 °F 87% 29.96 in 10.0 mi SW 6.9 mph - N/A   Clear
5:56 AM 69.1 °F 66.0 °F 90% 29.97 in 10.0 mi SSW 6.9 mph - N/A   Clear
6:56 AM 69.1 °F 66.0 °F 90% 29.98 in 10.0 mi SSW 6.9 mph - N/A   Mostly Cloudy
7:56 AM 70.0 °F 64.9 °F 84% 29.99 in 10.0 mi SW 8.1 mph - N/A   Overcast
8:56 AM 68.0 °F 66.0 °F 93% 30.00 in 10.0 mi SW 6.9 mph - 0.00 in Rain Rain
9:40 AM 68.0 °F 66.2 °F 94% 30.04 in 10.0 mi SW 6.9 mph - 0.01 in Rain Light Rain
9:47 AM 69.8 °F 66.2 °F 88% 30.04 in 10.0 mi SW 5.8 mph - 0.01 in Rain Light Rain
9:56 AM 69.1 °F 66.9 °F 93% 30.02 in 10.0 mi SW 6.9 mph - 0.01 in   Mostly Cloudy
10:14 AM 69.8 °F 66.2 °F 88% 30.05 in 10.0 mi SW 5.8 mph - 0.00 in Rain Light Rain
10:56 AM 69.1 °F 66.9 °F 93% 30.04 in 10.0 mi WSW 8.1 mph - 0.01 in   Overcast
11:47 AM 71.6 °F 68.0 °F 88% 30.05 in 10.0 mi SW 8.1 mph - 0.00 in Rain Light Rain
11:56 AM 70.0 °F 66.9 °F 90% 30.03 in 10.0 mi SW 9.2 mph - 0.00 in   Mostly Cloudy
12:20 PM 71.6 °F 66.2 °F 83% 30.05 in 10.0 mi SW 8.1 mph - 0.00 in Thunderstorm Thunderstorm
12:28 PM 69.8 °F 68.0 °F 94% 30.05 in 10.0 mi SSW 8.1 mph - 0.00 in Thunderstorm Thunderstorm
12:35 PM 69.8 °F 66.2 °F 88% 30.05 in 8.0 mi SSW 9.2 mph - 0.00 in Rain Rain
12:56 PM 68.0 °F 66.9 °F 96% 30.03 in 8.0 mi SW 8.1 mph - 0.02 in Rain Light Rain
1:56 PM 72.0 °F 68.0 °F 87% 30.01 in 10.0 mi SW 11.5 mph - 0.00 in   Overcast
2:08 PM 73.4 °F 68.0 °F 83% 30.03 in 10.0 mi SW 9.2 mph - N/A   Mostly Cloudy
2:32 PM 73.4 °F 68.0 °F 83% 30.03 in 10.0 mi WSW 9.2 mph - N/A   Mostly Cloudy
2:48 PM 75.2 °F 68.0 °F 78% 30.03 in 10.0 mi SW 10.4 mph - N/A Thunderstorm Mostly Cloudy
2:56 PM 75.0 °F 68.0 °F 79% 30.00 in 10.0 mi WSW 10.4 mph - N/A Thunderstorm Mostly Cloudy
3:03 PM 75.2 °F 68.0 °F 78% 30.02 in 10.0 mi Variable 5.8 mph - N/A   Mostly Cloudy
3:15 PM 75.2 °F 68.0 °F 78% 30.02 in 10.0 mi West 9.2 mph - N/A Thunderstorm Overcast
3:38 PM 69.8 °F 64.4 °F 83% 30.03 in 9.0 mi NW 10.4 mph 17.3 mph 0.00 in Rain Rain
3:48 PM 68.0 °F 64.4 °F 88% 30.03 in 10.0 mi WNW 6.9 mph - 0.00 in Rain Heavy Rain
3:56 PM 66.9 °F 64.0 °F 90% 30.01 in 10.0 mi West 5.8 mph - N/A Rain Rain
4:29 PM 68.0 °F 64.4 °F 88% 30.03 in 10.0 mi SSW 6.9 mph - N/A Thunderstorm Partly Cloudy
4:44 PM 68.0 °F 64.4 °F 88% 30.02 in 10.0 mi SSW 3.5 mph - N/A   Clear
4:56 PM 68.0 °F 64.9 °F 90% 30.01 in 10.0 mi South 5.8 mph - N/A   Partly Cloudy
5:56 PM 69.1 °F 66.0 °F 90% 30.01 in 10.0 mi SW 3.5 mph - N/A   Clear
6:56 PM 69.1 °F 66.9 °F 93% 30.02 in 9.0 mi SSW 4.6 mph - N/A   Clear
7:56 PM 66.9 °F 66.0 °F 97% 30.02 in 10.0 mi SSW 4.6 mph - N/A   Clear
9:56 PM 66.0 °F 64.9 °F 96% 30.05 in 9.0 mi WNW 3.5 mph - N/A   Partly Cloudy
10:56 PM 64.9 °F 64.0 °F 97% 30.05 in 9.0 mi Calm Calm - N/A   Clear
11:56 PM 63.0 °F 62.1 °F 97% 30.06 in 1.8 mi SW 4.6 mph - N/A   Clear